User: anonymous   Login
Location: Unspecified
(0.0000°N, 0.0000°E)
Time: 02:33:59
(UTC+01:00)
Language:

SJ-6B - Orbit

View from above orbital plane
View from above orbital plane
View from above satellite
View from above satellite

Ground track
Ground track

The orbit data is extracted from the following two-line orbital elements,

1 28415U 04035C   14324.77794380  .00006519  00000-0  47138-3 0  3486
2 28415 097.7974 330.4305 0056965 062.8686 297.8332 15.03071225557265
Epoch (UTC): 20 November 2014 18:40:14
Eccentricity: 0.0056965
inclination: 97.7974°
perigee height: 518 km
apogee height: 597 km
right ascension of ascending node: 330.4305°
argument of perigee: 62.8686°
revolutions per day: 15.03071225
mean anomaly at epoch: 297.8332°
orbit number at epoch: 55726

The dashed part of the orbit path shows where the satellite is in the earth's shadow,  

DLR